Other Public Products
Issued by NWS Charleston, SC

Current Version | Previous Version | Graphics & Text | Print | Product List | Glossary On
Versions: 1 2 3 4 5 6 7 8 9 10 11 12 13 14 15 16 17 18 19 20 21 22 23 24 25 26 27 28 29 30 31 32 33 34 35 36 37 38 39 40 41 42 43 44 45 46 47 48 49 50
543 FPUS82 KCHS 292312 OPUCHS TEST...KCHS/KSAV Gateway Observations...TEST National Weather Service Charleston SC 700 PM EDT SAT APR 29 2017 NOTE: "fair" indicates few or no clouds below 12,000 feet with no significant weather and/or obstructions to visibility. SCZ050-WAZ558-NCZ071-TXZ119-213-PAZ071-DCZ001-FLZ074-172-MI076- NYZ176-178-MAZ016-IL014-TNZ027-NJZ106-GAZ044-MD014-300000- ...Gateway Observations for Charleston International... CITY SKY/WX TMP DP RH WIND PRES REMARKS Chas Airport MOSUNNY 78 68 71 S8 30.18S Seattle CLOUDY 56 42 59 SW5 30.17F Charlotte PTSUNNY 81 70 69 SW6 30.13F Dallas DFW PTSUNNY 67 54 63 NW23 29.56R Dallas Love CLOUDY 69 55 60 NW18G30 29.56R Philladelphia MOCLDY 83 59 44 W5 30.02F Wash National CLOUDY 84 68 58 S9 30.03S Baltimore PTSUNNY 85 66 53 N5 30.02S Miami PTSUNNY 83 70 64 E21 30.07F Detroit CLOUDY 48 36 63 E12 30.21F Newark MOCLDY 81 58 45 W15 29.98S Laguardia CLOUDY 83 57 41 W12G22 29.96F J F K CLOUDY 83 59 44 W16G23 29.98F Boston Logan CLOUDY 76 52 43 W17G33 29.88S Ft. Lauderdale MOSUNNY 81 71 71 E16G25 30.08S Chicago O`Hare RAIN 40 37 89 NE18 30.12F FOG WCI 31 Chicago Midway RAIN 41 40 96 NE23G30 30.10F FOG Houston Bush CLOUDY 83 74 74 SE24G32 29.61S HAZE Houston Hobby CLOUDY 81 74 79 SE18G29 29.60F Nashville MOSUNNY 87 63 44 S16G23 29.94F Atlanta PTSUNNY 84 64 50 S15G23 30.07S $$ GAZ044-118-TXZ119-213-NCZ071-DCZ001-MDZ014-506-PAZ021-071-NJZ106- NYZ176-178-MAZ106-OHZ011-021-055-MIZ076-KYZ091-ILZ014-INZ047- MNZ060-ONZ431-300000- ...Gateway Observations for Savannah International... CITY SKY/WX TMP DP RH WIND PRES REMARKS Savannah Arpt CLOUDY 80 68 66 SE14 30.15S Atlanta PTSUNNY 84 64 50 S15G23 30.07S Charlotte PTSUNNY 81 70 69 SW6 30.13F Dallas DFW PTSUNNY 67 54 63 NW23 29.56R Houston Bush CLOUDY 83 74 74 SE24G32 29.61S HAZE Wash National CLOUDY 84 68 58 S9 30.03S Wash Dulles CLOUDY 84 69 60 CALM 30.04S Baltimore PTSUNNY 85 66 53 N5 30.02S Philadelphia MOCLDY 83 59 44 W5 30.02F Newark MOCLDY 81 58 45 W15 29.98S Laguardia CLOUDY 83 57 41 W12G22 29.96F J F K CLOUDY 83 59 44 W16G23 29.98F Boston CLOUDY 76 52 43 W17G33 29.88S Pittsburg PTSUNNY 67 62 84 N12 30.10R Akron FOG 53 50 89 N14 30.14R VSB 1 Cleveland CLOUDY 49 39 68 NE13 30.22R Cincinnati PTSUNNY 79 66 64 SE9 29.97F Columbus MOSUNNY 74 64 71 NE5 30.02F Detroit CLOUDY 48 36 63 E12 30.21F Chicago O`Hare RAIN 40 37 89 NE18 30.12F FOG WCI 31 Minneapolis CLOUDY 55 21 26 NE20G28 30.17F Indianapolis CLOUDY 74 63 68 E12 29.90F Toronto Canada PTSUNNY 50 30 46 N17 30.18S $$

USA.gov is the U.S. government's official web portal to all federal, state and local government web resources and services.